SPACEBEE-77 (47714 NORAD) Tracking and Keplerian Element Data

This shows tracking and keplerian element data for the satellite.

Feedback or suggestion? Click here.




ElementValue
Catalog47714
NameSPACEBEE-77
Epoch Orbit607
Epoch Day99.76505402
Epoch Year2021
RAAN174.707
Inclination97.4563
Eccentricity0.0011879
Argument of Perigee148.2562
Mean Anonmoly211.9393
Mean Motion15.21496644
Decay Rate4.709E-05
L11 47714U 21015Q 21099.76505402 .00004709 00000-0 21205-3 0 9995
L22 47714 97.4563 174.7070 0011879 148.2562 211.9393 15.21496644 6072

Live tracking and technical data element details for SPACEBEE-77 (NORAD 47714). SPACEBEE-77 can be tracked NOW for your location showing map with azimuth and elevation plus other details from your city location.

Track the satellite on the map from your city or location and see movement details for azimuth, elevation, latitude, longitude, range, height, and movement on the map or in text.







IsCatalogInMostPopularTable: catalog: 47714, numindb: 15
Update: records affected: 1



GetName: 47714 SPACEBEE-77

Hit Count: updated at: Sat, 10 Apr 2021 18:51:51 GMT